Dewpoint
44 42 40 38 37 36 36 36 40 40 42 42 44 44 45 46 46 45 45 44 44 44
38 39 37 38 38 38 39 37 41 42 43 44 44 43 42 42 42 42 42 42 42 41
39 40 40 40 39 39 40 40 42 42 42 41 41 41 41 41 40 40 40 39 39 39
40 41 40 40 39 40 41 41 41 41 41 41 40 40 39 39 38 37 37 37 36 36
41 40 40 39 40 41 40 41 41 40 39 39 38 38 37 37 36 35 34 35 34 34
41 40 40 40 40 41 40 40 39 38 37 37 37 37 36 36 35 34 34 33 33 33
40 40 40 40 40 40 39 38 37 36 36 36 36 35 34 34 34 33 33 33 33 34
41 40 40 40 39 38 38 37 36 35 35 35 35 33 33 33 32 32 32 32 33 33
40 40 40 39 38 37 36 35 35 35 34 34 33 34 33 33 32 31 32 32 32 34
40 38 38 37 36 35 35 35 34 34 34 33 33 34 33 32 31 32 33 34 34 33
37 34 35 35 32 32 34 33 33 33 34 33 34 33 33 31 32 32 34 34 33 33
35 33 33 32 32 32 32 33 33 33 33 32 32 34 32 31 31 31 32 32 33 34
35 34 33 32 32 33 33 32 33 33 33 33 33 34 32 31 31 31 31 31 31 32
35 36 35 33 33 33 33 33 33 33 33 35 34 32 31 31 30 31 30 31 31 31
Wind_Speed
21 18 18 15 14 9 9 6 7 4 3 5 7 7 8 8 10 11 12 14 15 15
19 19 17 16 13 10 8 5 6 5 4 5 8 9 9 9 10 10 11 13 13 15
18 17 18 16 11 9 7 5 5 3 4 4 4 5 7 7 9 11 12 13 14 15
18 18 16 14 12 9 7 5 3 3 5 6 8 9 9 10 11 12 14 14 16 17
19 18 16 14 12 10 7 7 7 7 7 7 8 9 9 10 11 13 14 15 16 18
17 17 15 13 12 10 8 7 5 3 6 7 8 8 8 9 9 11 13 15 17 19
18 16 15 13 12 10 8 5 4 6 6 6 5 7 7 8 10 12 14 16 17 19
17 17 15 14 12 10 7 6 7 5 5 4 5 5 7 8 11 14 17 18 17 17
16 16 15 14 11 9 9 9 4 3 3 4 4 7 9 9 12 14 16 17 19 18
15 16 14 12 10 11 11 4 1 1 3 4 6 8 10 11 11 14 15 16 16 17
18 18 14 13 13 12 6 2 3 0 2 5 7 9 10 13 12 12 13 14 16 17
17 17 12 12 15 11 6 4 2 1 2 4 6 7 8 11 11 13 13 14 13 15
17 15 14 14 12 9 6 5 3 0 4 5 4 6 7 10 10 12 14 13 13 14
16 17 16 13 11 9 7 5 2 3 5 4 0 5 8 12 9 9 13 11 13 12
Wind_Direction
146 145 144 156 134 138 125 120 84 68 48 16 356 334 331 334 332 330 327 317 309 299
142 141 145 124 125 134 118 137 91 51 24 13 21 4 340 325 316 318 316 309 310 310
140 126 124 131 133 116 102 90 63 46 46 1 336 316 322 318 313 311 309 305 305 302
136 128 129 128 122 114 103 90 67 37 28 3 357 2 352 340 328 317 309 304 304 308
137 136 135 130 124 115 118 88 64 39 23 4 360 2 344 326 313 311 314 314 314 309
141 141 134 131 123 117 105 88 69 48 22 21 5 336 313 301 322 320 315 310 308 305
153 143 137 127 120 112 96 98 76 43 39 20 332 309 310 337 333 320 311 304 299 298
144 135 127 127 118 113 114 87 51 39 28 334 310 324 358 334 324 315 309 306 298 298
145 138 133 126 132 140 95 63 58 46 330 336 319 358 341 335 322 314 308 305 312 308
144 135 133 137 142 96 80 92 48 40 17 318 326 336 336 334 321 310 307 307 309 310
147 141 138 144 113 101 105 156 213 86 338 324 328 333 333 334 318 314 306 317 314 301
149 145 154 142 114 118 152 180 180 81 326 313 313 327 343 342 332 324 322 314 309 310
147 145 156 113 129 134 159 179 114 320 247 252 294 330 347 351 334 329 324 316 327 327
144 136 116 138 128 142 160 115 96 249 262 230 77 4 359 351 338 322 316 320 326 330